Time,TemperatureF,DewpointF,PressureIn,WindDirection,WindDirectionDegrees,WindSpeedMPH,WindSpeedGustMPH,Humidity,HourlyPrecipIn,Conditions,Clouds,dailyrainin,SoftwareType,DateUTC
2013-06-05 00:00:00,56.8,38.9,30.19,NNW,342,0.0,0.0,51,0.00,,,0.00,Wunderground v.1.15,2013-06-05 04:00:00,
2013-06-05 00:05:00,56.6,39.2,30.19,WNW,297,0.0,0.0,52,0.00,,,0.00,Wunderground v.1.15,2013-06-05 04:05:00,
2013-06-05 00:10:00,56.4,39.0,30.19,WNW,298,0.0,0.0,52,0.00,,,0.00,Wunderground v.1.15,2013-06-05 04:10:00,
2013-06-05 00:15:00,56.3,39.4,30.19,North,350,0.0,0.0,53,0.00,,,0.00,Wunderground v.1.15,2013-06-05 04:15:00,
2013-06-05 00:25:00,56.0,39.1,30.19,North,354,0.0,0.0,53,0.00,,,0.00,Wunderground v.1.15,2013-06-05 04:25:00,
2013-06-05 00:35:00,55.7,39.3,30.19,North,354,0.0,0.0,54,0.00,,,0.00,Wunderground v.1.15,2013-06-05 04:35:00,
2013-06-05 00:40:00,55.5,39.6,30.19,North,354,0.0,0.0,55,0.00,,,0.00,Wunderground v.1.15,2013-06-05 04:40:00,
2013-06-05 00:45:00,55.4,39.5,30.19,NW,309,0.0,0.0,55,0.00,,,0.00,Wunderground v.1.15,2013-06-05 04:45:00,
2013-06-05 00:55:00,55.4,39.5,30.19,NW,309,0.0,0.0,55,0.00,,,0.00,Wunderground v.1.15,2013-06-05 04:55:00,
2013-06-05 01:00:00,55.3,39.9,30.19,NW,321,0.0,0.0,56,0.00,,,0.00,Wunderground v.1.15,2013-06-05 05:00:00,
2013-06-05 01:10:00,55.1,39.7,30.20,NW,321,0.0,0.0,56,0.00,,,0.00,Wunderground v.1.15,2013-06-05 05:10:00,
2013-06-05 01:20:00,54.9,39.5,30.20,NW,321,0.0,0.0,56,0.00,,,0.00,Wunderground v.1.15,2013-06-05 05:20:00,
2013-06-05 01:25:00,54.8,39.4,30.20,NW,321,0.0,0.0,56,0.00,,,0.00,Wunderground v.1.15,2013-06-05 05:25:00,
2013-06-05 01:35:00,54.6,39.2,30.20,NW,321,0.0,0.0,56,0.00,,,0.00,Wunderground v.1.15,2013-06-05 05:35:00,
2013-06-05 01:45:00,54.4,39.5,30.19,NW,321,0.0,0.0,57,0.00,,,0.00,Wunderground v.1.15,2013-06-05 05:45:00,
2013-06-05 01:50:00,54.4,39.9,30.19,NW,321,0.0,0.0,58,0.00,,,0.00,Wunderground v.1.15,2013-06-05 05:50:00,
2013-06-05 02:00:00,54.1,39.6,30.18,NW,321,0.0,0.0,58,0.00,,,0.00,Wunderground v.1.15,2013-06-05 06:00:00,
2013-06-05 02:10:00,54.2,41.0,30.19,NW,321,0.0,0.0,61,0.00,,,0.00,Wunderground v.1.15,2013-06-05 06:10:00,
2013-06-05 02:15:00,54.2,40.6,30.19,NW,321,0.0,0.0,60,0.00,,,0.00,Wunderground v.1.15,2013-06-05 06:15:00,
2013-06-05 02:25:00,54.0,40.4,30.19,NW,321,0.0,0.0,60,0.00,,,0.00,Wunderground v.1.15,2013-06-05 06:25:00,
2013-06-05 02:30:00,53.8,40.2,30.19,NW,321,0.0,0.0,60,0.00,,,0.00,Wunderground v.1.15,2013-06-05 06:30:00,
2013-06-05 02:40:00,53.8,40.2,30.19,NW,321,0.0,0.0,60,0.00,,,0.00,Wunderground v.1.15,2013-06-05 06:40:00,
2013-06-05 02:50:00,53.8,40.2,30.19,NW,321,0.0,0.0,60,0.00,,,0.00,Wunderground v.1.15,2013-06-05 06:50:00,
2013-06-05 03:00:00,53.8,40.7,30.19,NW,321,0.0,0.0,61,0.00,,,0.00,Wunderground v.1.15,2013-06-05 07:00:00,
2013-06-05 03:05:00,53.7,41.0,30.18,NW,321,0.0,0.0,62,0.00,,,0.00,Wunderground v.1.15,2013-06-05 07:05:00,
2013-06-05 03:15:00,53.5,40.4,30.18,NW,321,0.0,0.0,61,0.00,,,0.00,Wunderground v.1.15,2013-06-05 07:15:00,
2013-06-05 03:25:00,53.7,41.0,30.17,NW,321,0.0,0.0,62,0.00,,,0.00,Wunderground v.1.15,2013-06-05 07:25:00,
2013-06-05 03:30:00,53.7,40.6,30.17,NNW,327,0.0,0.0,61,0.00,,,0.00,Wunderground v.1.15,2013-06-05 07:30:00,
2013-06-05 03:40:00,53.7,40.1,30.17,NNW,327,0.0,0.0,60,0.00,,,0.00,Wunderground v.1.15,2013-06-05 07:40:00,
2013-06-05 03:50:00,53.8,40.7,30.17,NNW,327,0.0,0.0,61,0.00,,,0.00,Wunderground v.1.15,2013-06-05 07:50:00,
2013-06-05 03:55:00,53.8,40.7,30.17,NNW,327,0.0,0.0,61,0.00,,,0.00,Wunderground v.1.15,2013-06-05 07:55:00,
2013-06-05 04:00:00,53.9,40.8,30.17,NW,326,0.0,0.0,61,0.00,,,0.00,Wunderground v.1.15,2013-06-05 08:00:00,
2013-06-05 04:05:00,54.0,40.8,30.16,North,1,0.0,1.0,61,0.00,,,0.00,Wunderground v.1.15,2013-06-05 08:05:00,
2013-06-05 04:15:00,54.1,40.5,30.16,NE,36,0.0,0.0,60,0.00,,,0.00,Wunderground v.1.15,2013-06-05 08:15:00,
2013-06-05 04:20:00,54.0,40.4,30.16,NE,36,0.0,0.0,60,0.00,,,0.00,Wunderground v.1.15,2013-06-05 08:20:00,
2013-06-05 04:30:00,53.8,39.8,30.16,NW,323,0.0,0.0,59,0.00,,,0.00,Wunderground v.1.15,2013-06-05 08:30:00,
2013-06-05 04:40:00,53.7,40.1,30.17,NNW,333,0.0,0.0,60,0.00,,,0.00,Wunderground v.1.15,2013-06-05 08:40:00,
2013-06-05 04:50:00,53.6,39.2,30.18,NNW,337,0.0,1.0,58,0.00,,,0.00,Wunderground v.1.15,2013-06-05 08:50:00,
2013-06-05 04:55:00,53.6,39.2,30.18,NNW,339,1.0,1.0,58,0.00,,,0.00,Wunderground v.1.15,2013-06-05 08:55:00,
2013-06-05 05:00:00,53.5,39.1,30.18,NNW,329,1.0,1.0,58,0.00,,,0.00,Wunderground v.1.15,2013-06-05 09:00:00,
2013-06-05 05:10:00,53.3,38.9,30.18,NNW,332,1.0,1.0,58,0.00,,,0.00,Wunderground v.1.15,2013-06-05 09:10:00,
2013-06-05 05:20:00,53.1,38.7,30.18,North,357,0.0,0.0,58,0.00,,,0.00,Wunderground v.1.15,2013-06-05 09:20:00,
2013-06-05 05:30:00,52.6,38.2,30.18,North,357,0.0,0.0,58,0.00,,,0.00,Wunderground v.1.15,2013-06-05 09:30:00,
2013-06-05 05:35:00,52.4,38.5,30.18,North,357,0.0,0.0,59,0.00,,,0.00,Wunderground v.1.15,2013-06-05 09:35:00,
2013-06-05 05:45:00,51.9,38.4,30.18,NNE,23,0.0,1.0,60,0.00,,,0.00,Wunderground v.1.15,2013-06-05 09:45:00,
2013-06-05 05:55:00,51.5,38.5,30.17,NNW,336,0.0,0.0,61,0.00,,,0.00,Wunderground v.1.15,2013-06-05 09:55:00,
2013-06-05 06:00:00,51.5,38.5,30.18,NNW,338,0.0,0.0,61,0.00,,,0.00,Wunderground v.1.15,2013-06-05 10:00:00,
2013-06-05 06:10:00,51.9,38.9,30.18,NNW,333,0.0,0.0,61,0.00,,,0.00,Wunderground v.1.15,2013-06-05 10:10:00,
2013-06-05 06:20:00,52.0,39.0,30.18,North,1,0.0,0.0,61,0.00,,,0.00,Wunderground v.1.15,2013-06-05 10:20:00,
2013-06-05 06:25:00,52.0,39.4,30.18,North,1,0.0,0.0,62,0.00,,,0.00,Wunderground v.1.15,2013-06-05 10:25:00,
2013-06-05 06:35:00,52.2,40.4,30.18,NNW,340,0.0,0.0,64,0.00,,,0.00,Wunderground v.1.15,2013-06-05 10:35:00,
2013-06-05 06:45:00,52.2,40.8,30.18,NNW,340,0.0,0.0,65,0.00,,,0.00,Wunderground v.1.15,2013-06-05 10:45:00,
2013-06-05 06:55:00,52.3,41.7,30.18,NNW,338,0.0,0.0,67,0.00,,,0.00,Wunderground v.1.15,2013-06-05 10:55:00,
2013-06-05 07:00:00,52.4,42.1,30.18,NNW,338,0.0,0.0,68,0.00,,,0.00,Wunderground v.1.15,2013-06-05 11:00:00,
2013-06-05 07:10:00,52.6,43.1,30.18,North,355,0.0,0.0,70,0.00,,,0.00,Wunderground v.1.15,2013-06-05 11:10:00,
2013-06-05 07:15:00,52.9,43.7,30.19,North,352,0.0,0.0,71,0.00,,,0.00,Wunderground v.1.15,2013-06-05 11:15:00,
2013-06-05 07:25:00,53.7,45.2,30.18,NNW,339,0.0,1.0,73,0.00,,,0.00,Wunderground v.1.15,2013-06-05 11:25:00,
2013-06-05 07:35:00,54.2,45.4,30.18,North,6,1.0,1.0,72,0.00,,,0.00,Wunderground v.1.15,2013-06-05 11:35:00,
2013-06-05 07:45:00,54.4,45.9,30.19,NNW,343,1.0,2.0,73,0.00,,,0.00,Wunderground v.1.15,2013-06-05 11:45:00,
2013-06-05 07:50:00,54.5,46.0,30.19,ENE,68,1.0,2.0,73,0.00,,,0.00,Wunderground v.1.15,2013-06-05 11:50:00,
2013-06-05 08:01:00,55.5,46.6,30.19,NE,55,1.0,1.0,72,0.00,,,0.01,Wunderground v.1.15,2013-06-05 12:01:00,
2013-06-05 08:10:00,56.3,47.0,30.19,North,354,1.0,1.0,71,0.00,,,0.01,Wunderground v.1.15,2013-06-05 12:10:00,
2013-06-05 08:15:00,56.7,47.0,30.19,NNW,348,1.0,1.0,70,0.00,,,0.01,Wunderground v.1.15,2013-06-05 12:15:00,
2013-06-05 08:25:00,57.1,46.6,30.18,NW,314,1.0,1.0,68,0.00,,,0.01,Wunderground v.1.15,2013-06-05 12:25:00,
2013-06-05 08:30:00,57.6,47.1,30.18,North,1,1.0,1.0,68,0.00,,,0.01,Wunderground v.1.15,2013-06-05 12:30:00,
2013-06-05 08:40:00,58.4,46.7,30.18,NW,323,1.0,2.0,65,0.00,,,0.01,Wunderground v.1.15,2013-06-05 12:40:00,
2013-06-05 08:50:00,59.1,46.9,30.19,NNE,16,1.0,1.0,64,0.00,,,0.01,Wunderground v.1.15,2013-06-05 12:50:00,
2013-06-05 09:00:00,60.1,47.0,30.19,ESE,109,1.0,1.0,62,0.00,,,0.01,Wunderground v.1.15,2013-06-05 13:00:00,
2013-06-05 09:10:00,61.4,47.4,30.19,NNW,327,1.0,2.0,60,0.00,,,0.01,Wunderground v.1.15,2013-06-05 13:10:00,
2013-06-05 09:20:00,61.7,48.1,30.19,WNW,297,1.0,3.0,61,0.00,,,0.01,Wunderground v.1.15,2013-06-05 13:20:00,
2013-06-05 09:30:00,61.8,48.2,30.19,NW,324,1.0,1.0,61,0.00,,,0.01,Wunderground v.1.15,2013-06-05 13:30:00,
2013-06-05 09:40:00,62.5,48.4,30.19,NW,324,1.0,2.0,60,0.00,,,0.01,Wunderground v.1.15,2013-06-05 13:40:00,
2013-06-05 09:50:00,63.2,49.5,30.18,NW,312,2.0,2.0,61,0.00,,,0.01,Wunderground v.1.15,2013-06-05 13:50:00,
2013-06-05 10:00:00,63.5,49.4,30.18,NNW,335,2.0,2.0,60,0.00,,,0.02,Wunderground v.1.15,2013-06-05 14:00:00,
2013-06-05 10:10:00,64.5,49.4,30.17,NW,322,1.0,1.0,58,0.00,,,0.02,Wunderground v.1.15,2013-06-05 14:10:00,
2013-06-05 10:15:00,64.9,50.2,30.17,NE,41,1.0,1.0,59,0.00,,,0.02,Wunderground v.1.15,2013-06-05 14:15:00,
2013-06-05 10:25:00,65.9,49.3,30.17,North,359,1.0,1.0,55,0.00,,,0.02,Wunderground v.1.15,2013-06-05 14:25:00,
2013-06-05 10:35:00,66.6,49.9,30.16,SE,146,1.0,2.0,55,0.00,,,0.02,Wunderground v.1.15,2013-06-05 14:35:00,
2013-06-05 10:40:00,67.2,51.4,30.16,ENE,77,1.0,2.0,57,0.00,,,0.02,Wunderground v.1.15,2013-06-05 14:40:00,
2013-06-05 10:50:00,67.1,50.9,30.16,SSE,158,2.0,3.0,56,0.00,,,0.02,Wunderground v.1.15,2013-06-05 14:50:00,
2013-06-05 10:55:00,67.3,52.0,30.15,ENE,78,2.0,3.0,58,0.00,,,0.02,Wunderground v.1.15,2013-06-05 14:55:00,
2013-06-05 11:00:00,67.5,51.2,30.15,NNW,328,2.0,3.0,56,0.00,,,0.02,Wunderground v.1.15,2013-06-05 15:00:00,
2013-06-05 11:10:00,67.0,51.3,30.15,WNW,293,2.0,2.0,57,0.00,,,0.02,Wunderground v.1.15,2013-06-05 15:10:00,
2013-06-05 11:20:00,67.3,50.6,30.14,ENE,61,2.0,3.0,55,0.00,,,0.03,Wunderground v.1.15,2013-06-05 15:20:00,
2013-06-05 11:30:00,67.3,49.6,30.14,ESE,120,2.0,4.0,53,0.00,,,0.03,Wunderground v.1.15,2013-06-05 15:30:00,
2013-06-05 11:35:00,66.9,49.7,30.14,NE,56,3.0,4.0,54,0.00,,,0.03,Wunderground v.1.15,2013-06-05 15:35:00,
2013-06-05 11:45:00,67.2,50.5,30.13,NNE,29,2.0,3.0,55,0.00,,,0.03,Wunderground v.1.15,2013-06-05 15:45:00,
2013-06-05 11:55:00,68.4,50.6,30.13,ENE,78,2.0,2.0,53,0.00,,,0.03,Wunderground v.1.15,2013-06-05 15:55:00,
2013-06-05 12:00:00,69.1,50.2,30.13,NW,323,1.0,2.0,51,0.00,,,0.04,Wunderground v.1.15,2013-06-05 16:00:00,
2013-06-05 12:10:00,69.3,49.9,30.12,ESE,110,2.0,2.0,50,0.00,,,0.04,Wunderground v.1.15,2013-06-05 16:10:00,
2013-06-05 12:20:00,69.4,47.1,30.14,SE,129,2.0,3.0,45,0.00,,,0.04,Wunderground v.1.15,2013-06-05 16:20:00,
2013-06-05 12:25:00,69.1,49.1,30.14,ENE,78,2.0,3.0,49,0.00,,,0.04,Wunderground v.1.15,2013-06-05 16:25:00,
2013-06-05 12:35:00,69.0,49.0,30.12,East,100,2.0,3.0,49,0.00,,,0.04,Wunderground v.1.15,2013-06-05 16:35:00,
2013-06-05 12:45:00,69.3,48.2,30.12,SE,128,2.0,2.0,47,0.00,,,0.04,Wunderground v.1.15,2013-06-05 16:45:00,
2013-06-05 12:50:00,69.7,49.1,30.12,SW,229,2.0,2.0,48,0.00,,,0.04,Wunderground v.1.15,2013-06-05 16:50:00,
2013-06-05 13:00:00,70.1,50.0,30.12,ENE,62,2.0,2.0,49,0.00,,,0.04,Wunderground v.1.15,2013-06-05 17:00:00,
2013-06-05 13:10:00,70.3,47.9,30.11,NNE,18,2.0,2.0,45,0.00,,,0.04,Wunderground v.1.15,2013-06-05 17:10:00,
2013-06-05 13:15:00,70.2,49.0,30.11,East,87,2.0,2.0,47,0.00,,,0.04,Wunderground v.1.15,2013-06-05 17:15:00,
2013-06-05 13:25:00,69.7,50.2,30.11,ESE,112,2.0,5.0,50,0.00,,,0.04,Wunderground v.1.15,2013-06-05 17:25:00,
2013-06-05 13:30:00,69.3,49.9,30.10,ENE,73,3.0,3.0,50,0.00,,,0.04,Wunderground v.1.15,2013-06-05 17:30:00,
2013-06-05 13:40:00,70.2,49.0,30.11,SE,137,2.0,2.0,47,0.00,,,0.04,Wunderground v.1.15,2013-06-05 17:40:00,
2013-06-05 13:50:00,71.2,51.1,30.11,SE,130,1.0,2.0,49,0.00,,,0.04,Wunderground v.1.15,2013-06-05 17:50:00,
2013-06-05 13:55:00,71.0,49.7,30.11,ENE,70,2.0,2.0,47,0.00,,,0.04,Wunderground v.1.15,2013-06-05 17:55:00,
2013-06-05 14:00:00,70.8,49.0,30.11,WSW,250,2.0,2.0,46,0.00,,,0.04,Wunderground v.1.15,2013-06-05 18:00:00,
2013-06-05 14:10:00,71.0,48.6,30.11,SSW,195,2.0,2.0,45,0.00,,,0.04,Wunderground v.1.15,2013-06-05 18:10:00,
2013-06-05 14:20:00,70.8,45.9,30.10,NE,39,2.0,2.0,41,0.00,,,0.04,Wunderground v.1.15,2013-06-05 18:20:00,
2013-06-05 14:25:00,70.6,48.2,30.10,SE,142,2.0,2.0,45,0.00,,,0.04,Wunderground v.1.15,2013-06-05 18:25:00,
2013-06-05 14:35:00,70.4,49.8,30.10,NE,38,2.0,2.0,48,0.00,,,0.04,Wunderground v.1.15,2013-06-05 18:35:00,
2013-06-05 14:45:00,69.8,49.8,30.10,NNE,12,3.0,4.0,49,0.00,,,0.04,Wunderground v.1.15,2013-06-05 18:45:00,
2013-06-05 14:50:00,69.9,50.9,30.10,ENE,63,2.0,2.0,51,0.00,,,0.04,Wunderground v.1.15,2013-06-05 18:50:00,
2013-06-05 15:00:00,69.8,52.9,30.09,East,94,2.0,5.0,55,0.00,,,0.04,Wunderground v.1.15,2013-06-05 19:00:00,
2013-06-05 15:10:00,69.9,54.9,30.09,NE,56,2.0,2.0,59,0.00,,,0.04,Wunderground v.1.15,2013-06-05 19:10:00,
2013-06-05 15:15:00,70.3,53.4,30.09,East,87,2.0,2.0,55,0.00,,,0.04,Wunderground v.1.15,2013-06-05 19:15:00,
2013-06-05 15:25:00,69.6,52.7,30.08,SE,131,2.0,4.0,55,0.00,,,0.04,Wunderground v.1.15,2013-06-05 19:25:00,
2013-06-05 15:35:00,68.5,51.7,30.07,ENE,68,3.0,4.0,55,0.00,,,0.04,Wunderground v.1.15,2013-06-05 19:35:00,
2013-06-05 15:40:00,68.0,51.7,30.07,North,7,3.0,3.0,56,0.00,,,0.04,Wunderground v.1.15,2013-06-05 19:40:00,
2013-06-05 15:50:00,68.3,52.0,30.07,WNW,287,2.0,2.0,56,0.00,,,0.04,Wunderground v.1.15,2013-06-05 19:50:00,
2013-06-05 15:55:00,68.2,51.9,30.06,South,191,2.0,3.0,56,0.00,,,0.04,Wunderground v.1.15,2013-06-05 19:55:00,
2013-06-05 16:00:00,68.3,50.5,30.06,NE,35,3.0,3.0,53,0.00,,,0.04,Wunderground v.1.15,2013-06-05 20:00:00,
2013-06-05 16:05:00,68.3,52.0,30.06,ENE,59,3.0,6.0,56,0.00,,,0.04,Wunderground v.1.15,2013-06-05 20:05:00,
2013-06-05 16:15:00,68.2,49.9,30.06,NE,43,3.0,4.0,52,0.00,,,0.04,Wunderground v.1.15,2013-06-05 20:15:00,
2013-06-05 16:20:00,67.9,51.1,30.06,ENE,74,3.0,3.0,55,0.00,,,0.04,Wunderground v.1.15,2013-06-05 20:20:00,
2013-06-05 16:30:00,67.6,49.9,30.06,NE,40,3.0,6.0,53,0.00,,,0.04,Wunderground v.1.15,2013-06-05 20:30:00,
2013-06-05 16:35:00,67.4,50.2,30.06,WSW,255,3.0,6.0,54,0.00,,,0.04,Wunderground v.1.15,2013-06-05 20:35:00,
2013-06-05 16:45:00,67.1,51.4,30.06,ENE,70,3.0,4.0,57,0.00,,,0.04,Wunderground v.1.15,2013-06-05 20:45:00,
2013-06-05 16:55:00,67.1,51.4,30.06,ENE,71,2.0,3.0,57,0.00,,,0.04,Wunderground v.1.15,2013-06-05 20:55:00,
2013-06-05 17:00:00,67.1,50.4,30.06,SE,129,2.0,2.0,55,0.00,,,0.04,Wunderground v.1.15,2013-06-05 21:00:00,
2013-06-05 17:10:00,66.9,51.6,30.06,East,95,2.0,2.0,58,0.00,,,0.04,Wunderground v.1.15,2013-06-05 21:10:00,
2013-06-05 17:15:00,67.0,52.2,30.06,WSW,248,2.0,2.0,59,0.00,,,0.04,Wunderground v.1.15,2013-06-05 21:15:00,
2013-06-05 17:25:00,66.4,50.7,30.06,ENE,65,3.0,6.0,57,0.00,,,0.04,Wunderground v.1.15,2013-06-05 21:25:00,
2013-06-05 17:35:00,66.0,51.3,30.05,South,176,3.0,6.0,59,0.00,,,0.04,Wunderground v.1.15,2013-06-05 21:35:00,
2013-06-05 17:40:00,65.7,51.0,30.05,SSE,160,3.0,3.0,59,0.00,,,0.04,Wunderground v.1.15,2013-06-05 21:40:00,
2013-06-05 17:50:00,65.5,50.3,30.05,East,79,3.0,6.0,58,0.00,,,0.04,Wunderground v.1.15,2013-06-05 21:50:00,
2013-06-05 17:55:00,65.5,51.7,30.05,NE,53,4.0,6.0,61,0.00,,,0.04,Wunderground v.1.15,2013-06-05 21:55:00,
2013-06-05 18:00:00,65.6,51.3,30.05,East,99,2.0,3.0,60,0.00,,,0.04,Wunderground v.1.15,2013-06-05 22:00:00,
2013-06-05 18:10:00,65.3,50.1,30.04,East,99,2.0,8.0,58,0.00,,,0.04,Wunderground v.1.15,2013-06-05 22:10:00,
2013-06-05 18:20:00,65.1,49.5,30.05,SSE,154,4.0,4.0,57,0.00,,,0.04,Wunderground v.1.15,2013-06-05 22:20:00,
2013-06-05 18:30:00,65.0,49.4,30.05,ENE,65,3.0,3.0,57,0.00,,,0.04,Wunderground v.1.15,2013-06-05 22:30:00,
2013-06-05 18:40:00,64.8,49.7,30.04,NE,55,2.0,2.0,58,0.00,,,0.04,Wunderground v.1.15,2013-06-05 22:40:00,
2013-06-05 18:45:00,64.7,48.6,30.04,NE,52,2.0,3.0,56,0.00,,,0.04,Wunderground v.1.15,2013-06-05 22:45:00,
2013-06-05 18:55:00,64.3,47.3,30.03,NE,47,3.0,3.0,54,0.00,,,0.05,Wunderground v.1.15,2013-06-05 22:55:00,
2013-06-05 19:00:00,64.1,47.6,30.03,ENE,65,2.0,2.0,55,0.00,,,0.05,Wunderground v.1.15,2013-06-05 23:00:00,
2013-06-05 19:10:00,64.1,47.6,30.02,ENE,74,2.0,2.0,55,0.00,,,0.05,Wunderground v.1.15,2013-06-05 23:10:00,
2013-06-05 19:20:00,64.3,47.3,30.02,ENE,75,2.0,2.0,54,0.00,,,0.05,Wunderground v.1.15,2013-06-05 23:20:00,
2013-06-05 19:30:00,64.4,47.4,30.02,ENE,72,1.0,1.0,54,0.00,,,0.05,Wunderground v.1.15,2013-06-05 23:30:00,
2013-06-05 19:40:00,64.3,47.8,30.02,ENE,77,1.0,1.0,55,0.00,,,0.05,Wunderground v.1.15,2013-06-05 23:40:00,
2013-06-05 19:50:00,64.2,48.2,30.01,ENE,63,1.0,1.0,56,0.00,,,0.05,Wunderground v.1.15,2013-06-05 23:50:00,
2013-06-05 20:00:00,64.0,48.5,30.02,ENE,72,1.0,1.0,57,0.00,,,0.05,Wunderground v.1.15,2013-06-06 00:00:00,
2013-06-05 20:05:00,63.9,48.8,30.02,SE,127,1.0,1.0,58,0.00,,,0.05,Wunderground v.1.15,2013-06-06 00:05:00,
2013-06-05 20:15:00,63.5,48.5,30.02,NE,39,0.0,0.0,58,0.00,,,0.05,Wunderground v.1.15,2013-06-06 00:15:00,
2013-06-05 20:20:00,63.2,48.2,30.02,East,79,0.0,0.0,58,0.00,,,0.05,Wunderground v.1.15,2013-06-06 00:20:00,
2013-06-05 20:30:00,62.8,47.3,30.02,ENE,72,0.0,1.0,57,0.00,,,0.05,Wunderground v.1.15,2013-06-06 00:30:00,
2013-06-05 20:40:00,62.6,47.1,30.02,ESE,122,0.0,0.0,57,0.00,,,0.05,Wunderground v.1.15,2013-06-06 00:40:00,
2013-06-05 20:50:00,62.4,47.0,30.02,East,88,0.0,0.0,57,0.00,,,0.05,Wunderground v.1.15,2013-06-06 00:50:00,
2013-06-05 20:55:00,62.3,47.8,30.02,ENE,65,1.0,1.0,59,0.00,,,0.05,Wunderground v.1.15,2013-06-06 00:55:00,
2013-06-05 21:00:00,62.2,48.1,30.01,ENE,77,1.0,1.0,60,0.00,,,0.05,Wunderground v.1.15,2013-06-06 01:00:00,
2013-06-05 21:10:00,61.9,49.2,30.01,ENE,73,1.0,1.0,63,0.00,,,0.05,Wunderground v.1.15,2013-06-06 01:10:00,
2013-06-05 21:15:00,61.9,49.2,30.01,NE,56,1.0,2.0,63,0.00,,,0.05,Wunderground v.1.15,2013-06-06 01:15:00,
2013-06-05 21:25:00,61.9,49.2,30.02,NNE,13,1.0,1.0,63,0.00,,,0.05,Wunderground v.1.15,2013-06-06 01:25:00,
2013-06-05 21:35:00,61.7,49.0,30.02,ENE,67,0.0,2.0,63,0.00,,,0.05,Wunderground v.1.15,2013-06-06 01:35:00,
2013-06-05 21:45:00,61.5,48.8,30.02,NNW,348,0.0,1.0,63,0.00,,,0.05,Wunderground v.1.15,2013-06-06 01:45:00,
2013-06-05 21:50:00,61.4,48.3,30.02,ENE,66,1.0,2.0,62,0.00,,,0.05,Wunderground v.1.15,2013-06-06 01:50:00,
2013-06-05 22:00:00,61.6,48.0,30.02,ESE,112,1.0,1.0,61,0.00,,,0.05,Wunderground v.1.15,2013-06-06 02:00:00,
2013-06-05 22:10:00,61.2,48.1,30.02,ESE,110,0.0,0.0,62,0.00,,,0.05,Wunderground v.1.15,2013-06-06 02:10:00,
2013-06-05 22:15:00,61.1,48.0,30.02,ENE,70,0.0,1.0,62,0.00,,,0.05,Wunderground v.1.15,2013-06-06 02:15:00,
2013-06-05 22:25:00,61.0,47.0,30.02,North,351,1.0,1.0,60,0.00,,,0.05,Wunderground v.1.15,2013-06-06 02:25:00,
2013-06-05 22:30:00,60.8,46.4,30.02,NNE,12,0.0,0.0,59,0.00,,,0.05,Wunderground v.1.15,2013-06-06 02:30:00,
2013-06-05 22:40:00,60.4,46.0,30.03,NNW,339,0.0,0.0,59,0.00,,,0.05,Wunderground v.1.15,2013-06-06 02:40:00,
2013-06-05 22:50:00,60.3,45.0,30.03,North,6,0.0,0.0,57,0.00,,,0.05,Wunderground v.1.15,2013-06-06 02:50:00,
2013-06-05 22:55:00,60.1,44.3,30.03,North,7,0.0,0.0,56,0.00,,,0.05,Wunderground v.1.15,2013-06-06 02:55:00,
2013-06-05 23:00:00,59.9,44.2,30.03,North,6,0.0,0.0,56,0.00,,,0.05,Wunderground v.1.15,2013-06-06 03:00:00,
2013-06-05 23:10:00,59.9,43.7,30.02,East,94,0.0,0.0,55,0.00,,,0.05,Wunderground v.1.15,2013-06-06 03:10:00,
2013-06-05 23:20:00,60.0,44.3,30.02,ENE,78,0.0,0.0,56,0.00,,,0.05,Wunderground v.1.15,2013-06-06 03:20:00,
2013-06-05 23:25:00,60.0,44.3,30.02,ENE,78,0.0,0.0,56,0.00,,,0.05,Wunderground v.1.15,2013-06-06 03:25:00,
2013-06-05 23:35:00,59.9,45.1,30.02,NE,40,0.0,0.0,58,0.00,,,0.05,Wunderground v.1.15,2013-06-06 03:35:00,
2013-06-05 23:45:00,59.9,46.0,30.02,NNE,32,0.0,0.0,60,0.00,,,0.05,Wunderground v.1.15,2013-06-06 03:45:00,
2013-06-05 23:50:00,59.9,46.0,30.02,ESE,119,0.0,0.0,60,0.00,,,0.05,Wunderground v.1.15,2013-06-06 03:50:00,